Regional Weather Roundup
Issued by NWS Northern Indiana

Home | Current Version | Previous Version | Text Only | Print | Product List | Glossary Off
Versions: 1 2 3 4 5 6 7 8 9 10 11 12 13 14 15 16 17 18 19 20 21 22 23 24 25 26 27 28 29 30 31 32 33 34 35 36 37 38 39 40 41 42 43 44 45 46 47 48 49 50

000
ASUS43 KIWX 301210
RWRIWX

KIWX WEATHER ROUNDUP
NATIONAL WEATHER SERVICE NORTHERN INDIANA
700 AM EST FRI JAN 30 2015

NOTE: "FAIR" INDICATES FEW OR NO CLOUDS BELOW 12,000 FEET WITH NO
SIGNIFICANT WEATHER AND/OR OBSTRUCTIONS TO VISIBILITY.

* THESE STATIONS ARE NOT UNDER NWS QUALITY CONTROL. THEY ALSO MAY NOT
  REPORT WEATHER SUCH AS PRECIPITATION OR FOG.

INZ001>027-301300-
NORTHERN INDIANA

CITY           SKY/WX    TMP DP  RH WIND       PRES   REMARKS
GARY*          MOCLDY    27   7  43 NW14G25   30.45R WCI  15
VALPARAISO     CLOUDY    25  14  63 N15G22    30.42R WCI  13
6HR MIN TEMP:  25; 6HR MAX TEMP:  30; 6HR PCP: TRACE;

MICHIGAN CITY* CLOUDY    27   9  46 N12G20    30.43R WCI  16
LAPORTE*       FLURRIES  27  19  73 N16       30.41R WCI  14
6HR MIN TEMP:  27; 6HR MAX TEMP:  31;

KNOX*          CLOUDY    27   0  31 N15G21    30.40R WCI  15
SOUTH BEND     FLURRIES  24  16  71 N15       30.40R WCI  11
6HR MIN TEMP:  24; 6HR MAX TEMP:  29; 6HR PCP: TRACE;

ELKHART*       CLOUDY    23  12  63 NW5       30.39  WCI  17
GOSHEN         CLOUDY    22  14  71 N13       30.38R WCI  10
6HR MIN TEMP:  22; 6HR MAX TEMP:  29; 6HR PCP: TRACE;

MONTICELLO*    PTCLDY    24  15  67 NW12      30.41R WCI  13
6HR MIN TEMP:  24; 6HR MAX TEMP:  33;

LOGANSPORT*    CLOUDY    27  19  74 NW8       30.40R WCI  18
ROCHESTER*     CLOUDY    28  21  74 N10       30.39R WCI  19
WARSAW*        FLURRIES  23  18  80 NW8G17    30.37R WCI  14
ANGOLA*        CLOUDY    19  10  68 N10       30.33R WCI   8
FORT WAYNE     PTCLDY    21  11  65 N13       30.37R WCI   9
6HR MIN TEMP:  21; 6HR MAX TEMP:  32; 6HR PCP: TRACE;

HUNTINGTON*    CLOUDY    23   9  55 N8        30.37R WCI  13
6HR MIN TEMP:  23; 6HR MAX TEMP:  32;

PERU/GRISSOM   MOCLDY    24  17  72 N13       30.38R WCI  13
6HR MIN TEMP:  24; 6HR MAX TEMP:  33; 6HR PCP: TRACE;

MARION*        CLOUDY    25  16  67 N10G21    30.38R WCI  15
6HR MIN TEMP:  -2; 6HR MAX TEMP:  46;


$$
INZ028>050-301300-
CENTRAL INDIANA

CITY           SKY/WX    TMP DP  RH WIND       PRES   REMARKS
LAFAYETTE      PTCLDY    25  14  63 N13       30.43R WCI  14
6HR MIN TEMP:  25; 6HR MAX TEMP:  33; 6HR PCP: TRACE;

KOKOMO*        MOCLDY    25  16  68 N10       30.38R WCI  15
6HR MIN TEMP:  25; 6HR MAX TEMP:  34;

MUNCIE*        CLOUDY    25  17  72 MISG      30.36R
6HR MIN TEMP:  25; 6HR MAX TEMP:  33; 6HR PCP: TRACE;

INDIANAPOLIS   FLURRIES  25  20  81 N14       30.39R WCI  13
6HR MIN TEMP:  25; 6HR MAX TEMP:  31; 6HR PCP:  0.01;


$$
MIZ043>046-050>051-056>058-064>065-071>073-077>080-301300-
SOUTHWEST LOWER MICHIGAN

CITY           SKY/WX    TMP DP  RH WIND       PRES   REMARKS
BATTLE CREEK   CLOUDY    21  10  62 N9        30.35R WCI  11
6HR MIN TEMP:  21; 6HR MAX TEMP:  24; 6HR PCP: TRACE;

BENTON HARBOR  FLURRIES  23  14  68 N12G24    30.41R WCI  12
6HR MIN TEMP:  23; 6HR MAX TEMP:  27; 6HR PCP:  0.01;

COLDWATER*     CLOUDY    20  12  70 NW14G20   30.34R WCI   7
6HR MIN TEMP:  20; 6HR MAX TEMP:  27;

HILLSDALE*     FLURRIES  20  12  71 N13G25    30.30R WCI   7
6HR MIN TEMP:  20; 6HR MAX TEMP:  26;

HOLLAND        FLURRIES  21  11  65 NW9       30.42R WCI  11
6HR MIN TEMP:  21; 6HR MAX TEMP:  25; 6HR PCP: TRACE;

GRAND RAPIDS   CLOUDY    20   7  57 N20G25    30.38R WCI   4
6HR MIN TEMP:  20; 6HR MAX TEMP:  23; 6HR PCP: TRACE;

KALAMAZOO      CLOUDY    21   9  59 N15       30.37R WCI   8
6HR MIN TEMP:  20; 6HR MAX TEMP:  25;

STURGIS*       MOCLDY    19   9  63 N14G21    30.35R WCI   6
THREE RIVERS*  MOCLDY    21  11  67 N16G23    30.38R WCI   7
6HR MIN TEMP:  20; 6HR MAX TEMP:  27;


$$
OHZ001>008-015>018-024>025-301300-
NORTHWEST OHIO

CITY           SKY/WX    TMP DP  RH WIND       PRES   REMARKS
WAUSEON*       CLOUDY    21  10  63 N14G24    30.32R WCI   8
DEFIANCE       CLOUDY    23  10  57 NW16G25   30.35R WCI  10
6HR MIN TEMP:  23; 6HR MAX TEMP:  32; 6HR PCP: TRACE;

FINDLAY        CLOUDY    23  11  60 NW15      30.29R WCI  10
6HR MIN TEMP:  22; 6HR MAX TEMP:  32; 6HR PCP:  0.02;

TOLEDO EXPRESS PTCLDY    20  10  65 NW15G24   30.32R WCI   6
6HR MIN TEMP:  20; 6HR MAX TEMP:  28; 6HR PCP: TRACE;

TOLEDO METCALF CLEAR     21  10  62 N17       30.33R WCI   7
6HR MIN TEMP:  21; 6HR MAX TEMP:  31;

LIMA           CLOUDY    23  12  62 NW20G25   30.30R WCI   8
6HR MIN TEMP:  23; 6HR MAX TEMP:  33; 6HR PCP: TRACE;


$$
AND FOR LAKE MICHIGAN COASTAL AND OPEN LAKE BUOY OBSERVATIONS

STATION/POSITION TEMP    WIND        PRES    VSBY  WAVE
                 AIR SEA DIR/SP/G                  HT/PER
                 (F)     (DEG/KT/KT) (MB)    (MI)  (FT/S)
CALUMET HARBOR    24     300/  7/ 11   N/A
MICHIGAN CITY     27     340/ 22/ 28   N/A
SAINT JOSEPH      26     330/ 18/ 24 1030.5R

$$
&&


USA.gov is the U.S. government's official web portal to all federal, state and local government web resources and services.